Temperature
22 22 22 21 21 20 20 20 19 19 19 19 19 18 18 18 18 18 18 18 18 18 18 18 18 18 18 18 18 18 18 18 17 17 17 17 17 17 17 17 17 17 17
22 21 21 21 21 20 20 20 19 19 19 19 19 19 19 18 18 18 18 18 18 18 18 18 18 18 18 18 18 18 18 18 18 17 17 17 17 18 17 17 17 17 17
22 21 21 21 20 20 20 19 19 19 19 19 19 18 18 18 18 18 18 18 18 18 18 18 18 18 18 18 18 18 18 18 18 18 18 18 18 18 18 18 17 17 17
22 22 21 21 20 20 20 19 19 19 19 18 18 18 18 18 18 18 18 18 18 18 18 18 18 18 18 18 18 18 18 18 18 18 18 18 18 18 18 18 17 17 17
23 22 22 21 21 20 20 19 19 19 18 18 18 18 18 18 18 18 18 18 18 18 18 18 18 18 18 18 18 18 18 18 18 18 18 18 18 18 18 18 17 17 17
22 22 21 21 20 20 19 19 19 19 18 18 18 18 18 18 18 18 18 18 18 18 18 18 18 18 18 18 18 18 18 18 18 18 18 18 18 18 18 18 18 18 17
22 22 21 21 20 20 19 19 19 18 18 18 18 18 18 18 18 18 18 18 18 18 18 18 18 18 18 18 18 18 18 18 18 18 18 18 18 18 18 18 18 17 17
22 22 22 21 21 20 19 19 19 18 18 18 18 18 17 17 18 18 18 18 18 18 18 18 18 18 17 17 17 17 17 17 17 17 17 18 18 18 18 18 18 17 17
22 22 22 21 21 20 19 19 19 19 18 18 18 18 17 17 17 18 18 18 18 18 18 17 17 17 17 17 17 17 17 17 17 17 17 17 18 18 18 18 18 18 17
21 21 21 21 20 20 19 19 19 19 18 18 18 18 18 17 17 17 17 17 17 17 17 17 17 17 17 17 17 17 17 17 17 17 17 17 17 17 17 17 17 17 17
21 21 21 21 20 20 19 19 19 18 18 18 18 18 18 17 17 17 17 17 17 17 17 17 17 17 17 17 17 17 17 17 17 17 17 17 17 17 17 17 17 17 17
22 22 21 20 20 20 19 19 19 18 18 18 18 18 18 17 17 17 17 17 17 17 17 17 17 17 17 17 17 17 16 16 16 16 16 16 16 16 17 17 17 17 16
22 21 21 20 20 19 19 19 19 18 18 18 18 18 18 17 17 17 17 17 17 17 17 17 17 17 16 16 16 16 16 16 16 16 16 16 16 16 16 16 16 16 16
22 21 21 20 20 20 19 19 19 18 18 18 18 17 17 17 17 17 17 17 17 17 17 16 16 16 16 16 16 16 16 16 16 15 15 15 16 16 15 15 15 15 15
21 21 21 21 20 20 19 19 19 18 18 18 17 17 17 17 17 17 17 17 16 16 16 16 16 16 16 16 16 16 15 15 15 15 15 15 15 15 15 15 14 14 14
22 22 21 21 20 20 20 19 19 18 18 18 17 17 17 17 17 16 16 16 16 16 16 16 16 16 16 15 15 15 15 15 15 14 14 14 14 14 14 14 14 13 13
22 22 21 21 21 20 20 19 19 18 18 18 17 17 17 16 16 16 16 16 16 16 16 15 15 15 15 15 15 15 15 14 14 14 14 14 14 14 13 13 13 13 12
22 22 21 21 20 20 19 19 19 18 18 17 17 17 17 16 16 16 16 16 15 15 15 15 15 15 15 14 14 14 14 14 14 13 13 13 13 13 13 12 12 12 11
22 21 21 21 20 20 19 19 18 18 17 17 17 17 16 16 16 16 15 15 15 15 15 15 14 14 14 14 14 14 13 13 13 13 12 12 12 12 11 12 11 11 10
21 21 20 20 19 19 19 18 18 17 17 17 17 16 16 16 16 16 15 15 14 14 14 14 14 14 13 13 13 13 13 13 12 12 11 11 11 11 10 10 10 10 9
20 20 20 19 19 18 18 18 17 17 17 16 16 16 16 16 15 15 15 14 14 14 14 13 13 13 13 12 12 12 12 12 12 11 11 10 10 10 10 9 9 9 8
19 19 19 18 18 18 17 17 17 16 16 16 16 15 15 15 15 15 14 14 14 13 13 13 12 12 12 12 12 12 12 11 11 11 10 10 9 9 9 8 8 8 8
18 18 18 17 17 17 17 17 16 16 15 15 15 15 15 14 14 14 14 13 13 13 13 12 12 11 11 11 11 11 10 10 10 10 9 9 8 8 8 8 7 7 7
17 17 17 17 16 16 16 16 15 15 15 15 14 14 14 13 13 13 13 13 13 12 12 12 11 11 11 10 10 10 10 9 9 9 8 8 8 8 7 7 7 6 6
17 16 16 16 16 15 15 15 14 14 14 14 13 13 13 13 12 12 12 12 12 12 12 12 11 11 10 10 10 10 9 9 9 8 8 7 7 7 6 6 6 6 6
16 16 15 15 15 14 14 14 13 13 13 13 13 12 12 12 12 12 11 11 11 11 11 11 11 10 10 9 9 9 8 8 8 8 7 7 7 6 6 6 6 5 5
Wind_Speed
10 10 10 11 11 10 11 11 10 9 8 5 5 5 4 4 4 5 9 11 11 11 9 5 5 5 5 5 5 4 3 2 2 2 2 3 1 3 4 5 6 9 12
9 10 10 10 10 11 10 10 10 10 9 7 5 4 4 3 4 4 6 10 11 11 9 6 5 5 5 5 5 4 3 1 2 3 2 2 3 2 2 3 5 6 8
14 12 11 10 10 10 11 11 10 10 9 8 5 4 3 2 2 3 4 6 10 11 9 8 5 5 5 5 5 5 5 3 1 2 4 3 3 2 2 2 3 4 4
12 10 10 10 10 9 9 9 9 9 8 8 8 8 7 6 6 5 5 5 8 9 10 9 7 6 5 6 6 5 4 5 3 1 2 3 4 3 1 2 1 3 4
13 12 11 10 8 8 8 8 8 8 8 9 10 9 7 5 4 5 6 5 5 6 9 9 7 6 5 6 6 5 5 4 4 3 2 1 1 2 3 1 1 1 1
11 10 8 8 7 7 7 8 8 8 8 9 9 9 9 7 7 6 7 5 4 4 6 7 6 5 5 5 5 5 6 4 4 3 3 3 3 3 3 3 2 1 1
12 11 10 9 9 8 8 8 8 7 7 8 8 9 9 9 9 7 7 6 5 4 6 6 5 5 5 5 5 5 5 5 5 4 3 3 3 3 4 4 2 1 0
10 11 11 10 9 9 8 8 8 7 7 7 7 7 8 6 5 6 6 6 6 6 6 6 6 6 6 6 5 4 4 4 4 4 4 2 2 3 4 4 4 3 1
9 9 10 10 10 9 8 8 8 6 7 7 7 6 7 7 6 6 5 5 5 5 6 6 7 6 6 6 6 4 4 4 4 4 3 2 1 2 2 3 4 5 3
9 8 8 9 8 8 7 7 7 7 6 7 7 6 6 6 6 5 6 6 6 6 6 7 7 6 6 6 6 4 4 5 3 3 3 2 1 2 2 3 3 4 5
10 9 8 8 8 7 7 7 6 5 5 6 6 6 5 5 5 5 5 5 5 5 6 6 6 6 6 6 6 5 5 5 4 3 4 3 3 3 3 3 3 3 4
11 9 8 7 7 7 7 7 6 6 5 6 6 6 6 5 5 4 4 4 4 5 5 6 6 7 7 6 7 6 5 5 5 4 4 4 4 5 4 4 4 4 4
10 8 8 8 8 8 7 7 7 7 6 6 6 6 5 5 5 4 4 3 4 4 5 5 6 6 6 7 6 6 5 5 4 4 5 5 6 6 4 5 5 4 5
9 9 9 9 9 8 8 7 6 6 7 6 6 6 5 5 5 4 4 4 4 4 4 5 5 6 6 6 6 6 6 6 5 5 5 4 6 6 6 5 5 6 7
11 11 11 10 9 8 8 7 7 6 7 7 6 6 5 4 4 3 3 3 3 4 4 5 5 5 5 6 8 7 8 8 7 6 6 6 9 9 7 6 5 7 7
13 12 11 11 10 10 9 8 7 7 7 7 6 6 5 5 4 4 4 4 4 4 4 5 5 5 5 9 11 11 9 9 9 9 8 8 10 13 15 14 11 9 9
12 12 11 11 10 10 9 8 8 7 7 7 6 6 6 6 5 5 5 5 4 5 5 5 5 6 7 10 12 12 10 9 8 8 8 8 8 10 10 14 16 14 13
11 11 10 9 8 7 8 7 7 7 7 7 6 7 7 6 5 5 5 5 4 5 5 5 6 7 8 11 12 13 10 9 8 7 7 9 8 8 10 11 11 9 8
9 9 9 8 8 8 8 8 7 6 7 7 7 7 7 7 7 6 5 5 5 6 5 6 7 8 8 11 12 12 9 9 8 7 7 8 8 11 13 12 11 10 8
8 9 9 8 8 7 8 8 7 6 6 6 6 6 7 8 8 7 6 5 6 6 6 6 7 8 8 9 12 12 9 10 8 7 7 9 10 11 11 10 10 9 6
9 9 9 8 6 6 8 8 6 5 5 6 6 6 6 7 7 7 6 7 7 7 7 8 6 6 8 9 10 11 8 9 9 7 6 6 12 12 11 9 8 8 7
9 8 9 7 5 5 7 7 5 4 5 6 7 6 6 6 7 7 6 7 8 8 8 8 7 6 6 7 9 11 11 11 10 8 6 7 13 12 11 8 9 11 8
8 8 9 8 6 5 6 6 3 5 7 7 6 6 6 6 7 8 8 7 6 6 7 7 7 6 5 7 11 13 13 13 9 7 10 11 13 11 9 10 11 9 7
8 7 8 8 5 4 4 4 4 5 7 7 6 6 6 6 6 5 5 6 6 6 7 7 7 7 6 6 6 7 9 12 10 8 10 12 11 8 7 7 6 5 5
7 7 7 6 5 4 4 4 3 5 7 7 6 6 6 6 6 5 4 4 3 5 8 7 7 9 8 7 9 9 7 7 8 9 6 5 4 4 4 4 5 4 5
7 7 6 5 4 4 4 3 3 5 7 6 6 5 6 6 7 7 7 11 8 8 9 9 8 6 9 13 13 12 13 12 13 9 6 5 4 4 4 5 4 3 3
Wind_Direction
171 162 155 154 152 155 158 159 158 161 156 156 159 159 164 166 169 181 178 174 174 170 164 166 165 158 161 173 164 144 143 146 135 95 39 0 332 210 210 194 186 197 203
162 161 159 159 163 165 166 163 164 166 169 170 167 164 158 172 175 182 183 183 179 174 172 162 166 166 160 159 159 146 140 161 148 136 111 17 342 314 237 205 198 200 196
168 168 166 168 167 172 174 173 170 174 177 169 152 143 130 125 152 176 182 187 182 181 175 169 163 166 164 169 174 162 152 165 186 159 147 152 214 276 314 249 210 192 187
166 166 170 174 177 180 176 169 170 174 178 172 169 166 173 179 185 180 183 184 184 184 178 174 170 167 168 173 181 171 159 151 173 192 187 173 160 159 240 319 263 191 192
170 173 177 177 173 171 171 169 169 177 181 180 179 175 181 184 169 166 175 183 190 191 180 176 170 166 169 176 176 164 162 160 167 174 170 161 147 140 146 203 275 306 236
168 169 168 166 168 167 169 171 172 181 182 181 178 178 180 177 169 175 181 186 192 195 184 176 172 171 171 175 178 172 168 168 160 161 161 164 165 183 163 175 203 210 268
165 167 167 173 173 172 173 175 176 183 182 180 182 182 181 180 183 185 186 185 190 195 198 185 177 178 184 181 174 168 174 171 165 170 174 177 193 177 162 156 171 176 275
168 171 174 175 174 173 173 178 181 184 183 181 184 179 176 179 188 189 186 189 196 200 195 188 183 183 182 184 175 171 177 171 175 181 175 170 198 178 169 165 154 136 61
167 171 170 173 168 167 172 174 176 180 183 182 175 174 176 182 189 189 187 193 198 200 191 188 188 189 185 178 167 170 177 168 173 176 171 170 190 160 161 159 156 151 156
160 169 170 170 163 162 164 166 166 174 174 170 174 177 179 183 183 183 191 194 198 194 181 185 188 189 182 170 157 156 162 155 164 162 153 155 141 105 112 136 139 146 149
162 167 170 164 155 149 151 159 159 156 159 167 169 166 167 168 170 180 189 188 189 183 179 178 180 178 173 166 155 156 153 154 154 151 144 140 128 115 101 100 105 117 124
164 161 156 152 149 154 157 162 165 163 168 169 165 164 164 166 169 179 186 181 178 179 175 173 175 177 170 162 154 157 157 151 151 150 132 126 117 103 100 102 102 108 116
161 156 154 158 161 163 164 167 170 170 168 161 161 161 163 167 171 177 175 171 173 172 170 165 168 167 161 157 156 154 150 141 137 135 131 129 120 107 99 97 101 104 106
159 159 161 163 166 168 166 166 169 169 163 157 158 164 171 173 177 174 169 169 165 164 169 165 160 157 152 150 147 142 132 120 107 105 110 113 118 121 114 105 106 109 106
165 165 167 167 167 164 165 165 167 163 160 156 162 172 168 158 150 143 142 137 138 148 147 142 141 143 146 149 145 139 132 121 109 98 94 99 106 108 108 112 112 114 112
170 168 166 166 167 167 166 165 165 164 157 158 164 160 148 143 140 139 134 128 129 125 120 127 133 134 143 142 141 138 131 128 124 115 100 92 89 92 89 90 93 106 119
165 165 167 170 169 168 165 164 164 158 154 156 154 149 145 142 141 139 130 130 126 119 117 119 122 125 130 132 132 132 131 128 128 125 121 111 100 93 94 86 81 78 85
157 160 159 153 151 151 151 152 148 148 150 150 151 149 145 143 139 134 132 127 119 118 121 122 123 122 123 123 123 120 115 112 111 114 118 118 113 109 107 100 88 77 70
144 141 138 136 134 136 139 136 139 142 145 150 153 154 150 146 141 136 131 125 119 114 114 116 117 119 118 120 122 118 113 108 101 101 106 115 114 116 111 107 102 91 78
122 123 122 116 119 126 126 125 134 138 149 156 155 151 150 151 150 144 136 125 121 117 111 107 113 121 124 124 123 122 120 116 109 97 97 108 116 119 115 112 112 108 104
111 115 114 115 121 124 122 125 131 143 148 140 134 133 136 139 137 132 128 125 120 115 110 108 105 112 122 120 120 125 129 130 123 117 109 106 110 110 111 113 117 130 128
109 113 111 108 110 119 125 127 137 143 134 129 128 127 128 131 130 125 122 123 126 123 117 110 100 92 100 112 118 121 124 128 127 126 122 116 112 107 104 101 111 115 111
116 113 116 113 102 103 119 130 136 134 131 127 128 128 125 124 130 132 132 128 127 131 129 126 122 112 97 101 110 116 119 118 114 118 120 114 107 98 90 93 100 103 107
112 114 113 113 110 105 104 112 125 133 135 135 134 132 134 129 125 128 137 141 143 143 141 140 137 130 123 123 121 121 116 112 110 112 112 104 95 88 89 88 87 90 110
105 109 115 120 120 112 103 102 117 130 133 136 137 134 134 134 124 108 92 126 137 158 153 154 151 149 151 155 145 139 133 134 132 125 110 101 99 94 89 86 89 93 100
109 109 109 112 117 118 118 117 127 137 140 142 144 143 139 136 131 123 92 58 74 96 110 122 133 127 133 136 132 128 126 128 135 125 128 130 128 131 130 123 113 104 110
Height
1511 1513 1516 1518 1520 1523 1525 1527 1530 1533 1536 1538 1540 1543 1546 1549 1552 1555 1558 1560 1562 1564 1565 1567 1568 1570 1571 1573 1575 1576 1577 1579 1580 1581 1582 1583 1584 1584 1585 1586 1587 1587 1588
1509 1512 1515 1517 1519 1521 1523 1526 1528 1530 1533 1536 1538 1541 1544 1548 1550 1553 1556 1558 1560 1562 1564 1565 1567 1569 1570 1572 1573 1574 1576 1577 1579 1580 1581 1582 1584 1583 1584 1585 1585 1586 1587
1506 1510 1513 1515 1518 1520 1522 1524 1526 1528 1531 1533 1536 1539 1542 1546 1548 1551 1553 1556 1558 1560 1562 1564 1566 1567 1569 1570 1571 1573 1574 1576 1577 1578 1580 1580 1580 1581 1582 1583 1584 1585 1585
1505 1508 1511 1514 1516 1519 1521 1523 1524 1526 1529 1531 1533 1536 1538 1541 1544 1547 1551 1554 1556 1558 1560 1562 1564 1565 1567 1568 1570 1571 1573 1574 1575 1577 1578 1579 1579 1580 1580 1582 1582 1583 1584
1504 1507 1510 1512 1515 1517 1519 1521 1523 1524 1526 1528 1530 1533 1536 1540 1543 1546 1549 1551 1554 1556 1558 1560 1562 1563 1565 1567 1568 1569 1571 1572 1574 1575 1576 1577 1577 1578 1579 1579 1580 1582 1582
1503 1506 1509 1511 1513 1516 1518 1519 1521 1522 1524 1526 1528 1530 1533 1537 1540 1543 1546 1548 1551 1553 1555 1557 1559 1561 1563 1564 1566 1567 1569 1570 1572 1573 1574 1575 1575 1576 1577 1577 1578 1579 1580
1501 1504 1507 1509 1512 1514 1516 1518 1519 1520 1522 1524 1526 1528 1531 1534 1537 1540 1543 1545 1548 1550 1552 1554 1556 1558 1560 1562 1563 1565 1566 1568 1569 1570 1571 1572 1573 1574 1575 1575 1576 1577 1579
1501 1503 1505 1508 1510 1513 1514 1516 1517 1518 1520 1522 1524 1526 1529 1532 1535 1538 1540 1542 1545 1547 1549 1551 1553 1555 1557 1559 1560 1562 1564 1565 1566 1568 1569 1570 1571 1571 1572 1573 1574 1575 1577
1501 1503 1505 1507 1509 1511 1513 1515 1516 1517 1518 1520 1522 1525 1527 1530 1532 1535 1537 1539 1542 1544 1546 1548 1550 1552 1554 1555 1557 1559 1561 1562 1563 1565 1566 1567 1568 1569 1570 1571 1572 1573 1573
1500 1503 1505 1506 1508 1511 1512 1514 1515 1516 1517 1519 1521 1523 1525 1528 1530 1533 1534 1536 1538 1540 1542 1544 1546 1548 1550 1552 1554 1556 1558 1559 1560 1562 1563 1564 1565 1566 1567 1568 1569 1570 1571
1499 1501 1504 1506 1508 1510 1512 1513 1514 1515 1517 1518 1520 1522 1524 1526 1528 1530 1532 1533 1535 1537 1539 1541 1542 1544 1546 1549 1551 1553 1555 1556 1557 1559 1560 1561 1562 1563 1564 1565 1566 1568 1569
1498 1500 1504 1506 1508 1510 1512 1513 1514 1515 1516 1517 1519 1521 1523 1524 1526 1528 1529 1531 1532 1534 1535 1537 1539 1541 1543 1545 1547 1550 1551 1553 1555 1556 1557 1558 1559 1560 1561 1562 1564 1565 1566
1497 1500 1503 1506 1508 1509 1511 1512 1513 1515 1516 1517 1519 1520 1521 1523 1524 1526 1527 1528 1529 1531 1532 1534 1536 1538 1540 1542 1544 1547 1548 1550 1552 1553 1555 1556 1557 1558 1559 1560 1561 1563 1564
1497 1499 1502 1505 1507 1509 1510 1511 1513 1514 1516 1517 1518 1519 1520 1521 1523 1524 1525 1526 1527 1528 1529 1531 1533 1535 1537 1539 1541 1543 1545 1547 1549 1550 1552 1553 1554 1555 1556 1558 1559 1561 1562
1495 1498 1501 1504 1506 1508 1509 1510 1512 1513 1514 1516 1517 1518 1519 1520 1521 1522 1523 1524 1525 1526 1527 1529 1531 1532 1534 1536 1538 1540 1542 1544 1546 1548 1549 1551 1552 1553 1554 1556 1557 1559 1560
1493 1496 1499 1502 1504 1506 1508 1509 1510 1512 1513 1514 1516 1517 1518 1519 1520 1521 1522 1522 1523 1524 1526 1527 1528 1530 1531 1533 1536 1538 1540 1542 1544 1546 1547 1549 1550 1551 1553 1554 1556 1557 1558
1490 1493 1497 1500 1502 1504 1506 1508 1509 1511 1512 1513 1515 1516 1517 1518 1519 1520 1520 1521 1522 1523 1524 1525 1526 1528 1530 1532 1534 1536 1538 1540 1542 1544 1545 1546 1548 1550 1551 1552 1554 1555 1556
1488 1491 1495 1498 1501 1503 1505 1507 1508 1509 1510 1512 1513 1514 1515 1516 1517 1518 1519 1520 1520 1521 1522 1523 1525 1526 1528 1530 1532 1534 1536 1538 1540 1542 1543 1545 1546 1548 1550 1551 1552 1553 1555
1486 1490 1493 1496 1499 1501 1503 1505 1507 1508 1509 1510 1511 1513 1514 1515 1516 1516 1517 1518 1518 1519 1520 1521 1523 1525 1527 1529 1531 1532 1534 1536 1537 1540 1541 1543 1545 1546 1548 1550 1550 1552 1553
1487 1489 1492 1496 1498 1500 1502 1504 1505 1507 1507 1508 1510 1511 1512 1513 1514 1515 1516 1517 1517 1518 1519 1520 1521 1523 1525 1527 1529 1531 1532 1534 1536 1538 1540 1542 1544 1546 1547 1549 1549 1551 1552
1487 1490 1492 1495 1497 1499 1500 1502 1503 1504 1505 1507 1508 1509 1510 1511 1512 1513 1514 1515 1516 1516 1517 1518 1520 1522 1524 1526 1528 1530 1531 1533 1535 1537 1539 1541 1544 1545 1547 1548 1549 1551 1552
1486 1489 1491 1494 1496 1498 1499 1499 1500 1502 1503 1505 1506 1507 1509 1510 1511 1511 1512 1513 1514 1515 1516 1517 1519 1521 1523 1525 1527 1529 1530 1532 1534 1535 1538 1540 1543 1545 1546 1548 1549 1550 1552
1486 1488 1490 1493 1495 1496 1497 1498 1499 1500 1501 1503 1504 1505 1506 1507 1509 1510 1511 1511 1513 1514 1515 1516 1518 1520 1522 1524 1526 1528 1529 1531 1533 1535 1538 1540 1542 1544 1546 1548 1549 1550 1552
1485 1487 1490 1492 1493 1494 1495 1496 1497 1498 1499 1500 1501 1503 1504 1505 1506 1508 1509 1510 1511 1512 1514 1515 1516 1519 1521 1523 1525 1527 1529 1531 1533 1535 1538 1540 1542 1544 1546 1548 1550 1551 1552
1485 1487 1488 1490 1491 1492 1493 1494 1495 1495 1496 1497 1499 1500 1501 1503 1504 1505 1507 1508 1510 1511 1512 1514 1516 1517 1519 1522 1525 1526 1529 1531 1533 1535 1538 1540 1542 1544 1546 1548 1550 1552 1553
1484 1485 1486 1488 1489 1489 1490 1491 1492 1493 1494 1495 1496 1497 1499 1500 1501 1503 1505 1507 1509 1511 1513 1514 1516 1518 1520 1522 1524 1527 1530 1532 1534 1536 1537 1540 1542 1544 1546 1548 1550 1552 1554